Big Rapids, MI

7:11 AM EDT on September 19, 2019 (GMT -0400)
Roben-Hood

Weather History for KRQB - July, 2019

Change the Weather History Date:

Saturday, July 27, 2019

  Actual Average Record
Temperature  
Mean Temperature 75 °F -  
Max Temperature 82 °F 81 °F 90 °F (1970)
Min Temperature 68 °F 56 °F 41 °F (1977)
Cooling Degree Days 10    
Growing Degree Days 25 (Base 50)    
Moisture  
Dew Point 63 °F    
Average Humidity 66    
Maximum Humidity 88    
Minimum Humidity 54    
Precipitation  
Precipitation 0.00 in - - ()
Sea Level Pressure  
Sea Level Pressure 30.06 in    
Wind  
Wind Speed 10 mph (SW)    
Max Wind Speed 18 mph    
Max Gust Speed 29 mph    
Visibility 10 miles    
Events Rain    
Averages and records for this station are not official NWS values.
T = Trace of Precipitation, MM = Missing Value Source: NWS Daily Summary

Daily Weather History Graph

Daily Weather History Graph

Search for Another Location

Airport or City:

Astronomy

Jul. 27, 2019 Rise Set
Actual Time 6:25 AM EDT 9:11 PM EDT
Civil Twilight 5:52 AM EDT 9:44 PM EDT
Nautical Twilight 5:09 AM EDT 10:26 PM EDT
Astronomical Twilight 4:21 AM EDT 11:14 PM EDT
Moon 2:12 AM EDT (7/27) 5:01 PM EDT (7/27)
Length of Visible Light 15h 52m
Length of Day
14h 45m
Waning Crescent, 24% of the Moon is Illuminated
Jul 27
Waning Crescent
Jul 31
New
Aug 7
First Quarter
Aug 15
Full
Aug 23
Last Quarter

Hourly Weather History & Observations

Time (EDT) Temp. Heat Index Dew Point Humidity Pressure Visibility Wind Dir Wind Speed Gust Speed Precip Events Conditions
12:15 AM 70.2 °F - 60.8 °F 72% 30.13 in 10.0 mi South 11.5 mph - N/A   Scattered Clouds
12:16 AM 70.2 °F - 60.8 °F 72% 30.13 in 10.0 mi South 12.7 mph - N/A   Scattered Clouds
12:39 AM 70.2 °F - 60.3 °F 71% 30.13 in 10.0 mi SSW 10.4 mph - N/A   Scattered Clouds
12:56 AM 70.3 °F - 60.1 °F 70% 30.14 in 10.0 mi SSW 8.1 mph - N/A   Scattered Clouds
1:15 AM 70.7 °F - 60.3 °F 69% 30.13 in 10.0 mi SSW 10.4 mph - N/A   Scattered Clouds
1:16 AM 70.7 °F - 60.3 °F 69% 30.13 in 10.0 mi SSW 10.4 mph - N/A Rain Light Rain
1:35 AM 70.7 °F - 60.3 °F 69% 30.13 in 10.0 mi SSW 9.2 mph - N/A   Clear
1:59 AM 70.3 °F - 60.3 °F 70% 30.13 in 10.0 mi SSW 9.2 mph - N/A   Mostly Cloudy
2:17 AM 69.8 °F - 60.4 °F 72% 30.12 in 10.0 mi South 10.4 mph - N/A   Mostly Cloudy
2:35 AM 69.8 °F - 60.3 °F 72% 30.12 in 10.0 mi SSW 9.2 mph - N/A   Overcast
2:36 AM 69.8 °F - 60.3 °F 72% 30.12 in 10.0 mi SSW 8.1 mph - N/A   Overcast
2:55 AM 70.0 °F - 60.3 °F 71% 30.12 in 10.0 mi South 8.1 mph - N/A   Overcast
3:15 AM 70.2 °F - 60.1 °F 70% 30.10 in 10.0 mi South 10.4 mph - N/A   Overcast
3:20 AM 70.5 °F - 59.9 °F 69% 30.10 in 10.0 mi SSW 9.2 mph - N/A   Overcast
3:38 AM 71.1 °F - 59.5 °F 67% 30.10 in 10.0 mi SSW 8.1 mph - N/A   Overcast
3:56 AM 71.2 °F - 59.7 °F 67% 30.10 in 10.0 mi SSW 8.1 mph - N/A   Overcast
4:15 AM 71.6 °F - 59.7 °F 66% 30.09 in 10.0 mi SSW 9.2 mph - N/A   Overcast
4:16 AM 71.6 °F - 59.7 °F 66% 30.09 in 10.0 mi SSW 9.2 mph - N/A   Overcast
4:35 AM 71.2 °F - 59.9 °F 67% 30.08 in 10.0 mi SW 8.1 mph - N/A   Overcast
4:36 AM 71.2 °F - 59.9 °F 67% 30.08 in 10.0 mi SW 9.2 mph - N/A   Overcast
4:59 AM 71.6 °F - 60.8 °F 69% 30.08 in 10.0 mi SW 6.9 mph - N/A   Overcast
5:17 AM 71.6 °F - 61.0 °F 69% 30.08 in 10.0 mi SW 6.9 mph - N/A   Overcast
5:35 AM 71.8 °F - 61.3 °F 70% 30.08 in 10.0 mi SSW 6.9 mph - N/A   Overcast
5:55 AM 71.6 °F - 61.7 °F 71% 30.08 in 10.0 mi SSW 8.1 mph - N/A   Overcast
5:56 AM 71.6 °F - 61.7 °F 71% 30.08 in 10.0 mi SW 6.9 mph - N/A   Overcast
6:15 AM 71.6 °F - 61.9 °F 71% 30.08 in 10.0 mi SW 6.9 mph - N/A Rain Light Rain
6:20 AM 71.1 °F - 62.4 °F 74% 30.08 in 10.0 mi SSW 8.1 mph - N/A Rain Light Rain
6:38 AM 68.9 °F - 63.5 °F 83% 30.08 in 10.0 mi SSW 6.9 mph - N/A Rain Light Rain
6:56 AM 68.2 °F - 64.4 °F 88% 30.08 in 10.0 mi SSW 4.6 mph - N/A   Overcast
7:15 AM 68.5 °F - 64.4 °F 87% 30.07 in 10.0 mi SSW 6.9 mph - N/A   Overcast
7:16 AM 68.7 °F - 64.6 °F 87% 30.07 in 10.0 mi SSW 6.9 mph - N/A   Overcast
7:39 AM 69.1 °F - 64.6 °F 86% 30.07 in 10.0 mi SSW 6.9 mph - N/A   Overcast
7:57 AM 69.3 °F - 64.4 °F 84% 30.07 in 10.0 mi SSW 5.8 mph - N/A   Mostly Cloudy
8:15 AM 69.4 °F - 64.6 °F 84% 30.08 in 10.0 mi SSW 4.6 mph - N/A   Mostly Cloudy
8:16 AM 69.4 °F - 64.6 °F 84% 30.08 in 10.0 mi SSW 5.8 mph - N/A   Mostly Cloudy
8:35 AM 70.2 °F - 64.8 °F 83% 30.08 in 10.0 mi SSW 5.8 mph - N/A   Mostly Cloudy
8:55 AM 71.8 °F - 64.8 °F 78% 30.08 in 10.0 mi SW 8.1 mph - N/A   Scattered Clouds
9:18 AM 74.3 °F - 64.6 °F 72% 30.07 in 10.0 mi SW 11.5 mph 26.5 mph N/A   Scattered Clouds
9:36 AM 74.3 °F - 64.6 °F 72% 30.07 in 10.0 mi SW 9.2 mph 16.1 mph N/A   Mostly Cloudy
9:55 AM 75.0 °F - 64.2 °F 69% 30.06 in 10.0 mi SW 12.7 mph 21.9 mph N/A   Mostly Cloudy
10:15 AM 76.1 °F - 64.2 °F 67% 30.06 in 10.0 mi SW 16.1 mph 24.2 mph N/A   Scattered Clouds
10:16 AM 76.3 °F - 64.2 °F 66% 30.06 in 10.0 mi SW 15.0 mph 24.2 mph N/A   Scattered Clouds
10:39 AM 76.1 °F - 64.4 °F 67% 30.07 in 10.0 mi WSW 10.4 mph 25.3 mph N/A   Mostly Cloudy
10:57 AM 77.9 °F - 65.1 °F 65% 30.07 in 10.0 mi WSW 12.7 mph 20.7 mph N/A   Mostly Cloudy
11:15 AM 78.1 °F - 64.6 °F 63% 30.07 in 10.0 mi SW 13.8 mph 23.0 mph N/A   Mostly Cloudy
11:35 AM 79.2 °F - 64.8 °F 61% 30.06 in 10.0 mi SW 12.7 mph 21.9 mph N/A   Scattered Clouds
11:36 AM 79.2 °F - 64.8 °F 61% 30.06 in 10.0 mi WSW 12.7 mph 21.9 mph N/A   Scattered Clouds
11:59 AM 79.9 °F - 64.4 °F 59% 30.06 in 10.0 mi SW 12.7 mph 23.0 mph N/A   Clear
12:17 PM 81.1 °F 82.9 °F 65.1 °F 58% 30.05 in 10.0 mi West 15.0 mph 20.7 mph N/A   Scattered Clouds
12:35 PM 81.5 °F 83.3 °F 64.9 °F 57% 30.04 in 10.0 mi WSW 9.2 mph 23.0 mph N/A   Mostly Cloudy
12:36 PM 81.5 °F 83.3 °F 64.9 °F 57% 30.04 in 10.0 mi WSW 11.5 mph 23.0 mph N/A   Mostly Cloudy
12:55 PM 80.8 °F 82.5 °F 64.6 °F 58% 30.04 in 10.0 mi WSW 15.0 mph 23.0 mph N/A   Mostly Cloudy
12:56 PM 80.6 °F 82.3 °F 64.8 °F 58% 30.04 in 10.0 mi WSW 15.0 mph 23.0 mph N/A   Mostly Cloudy
1:15 PM 81.7 °F 83.3 °F 64.4 °F 56% 30.04 in 10.0 mi SW 16.1 mph 21.9 mph N/A   Scattered Clouds
1:38 PM 80.6 °F 82.3 °F 64.4 °F 58% 30.04 in 10.0 mi SW 15.0 mph 27.6 mph N/A   Clear
1:56 PM 80.8 °F 82.4 °F 64.0 °F 57% 30.04 in 10.0 mi SW 16.1 mph 19.6 mph N/A   Clear
2:15 PM 81.0 °F 82.6 °F 64.6 °F 57% 30.04 in 10.0 mi WSW 10.4 mph 26.5 mph N/A   Scattered Clouds
2:35 PM 81.1 °F 82.7 °F 64.2 °F 56% 30.04 in 10.0 mi WSW 17.3 mph 24.2 mph N/A   Scattered Clouds
2:59 PM 80.8 °F 82.4 °F 64.4 °F 57% 30.03 in 10.0 mi WSW 18.4 mph 28.8 mph N/A   Scattered Clouds
3:16 PM 81.0 °F 82.6 °F 64.2 °F 57% 30.03 in 10.0 mi WSW 16.1 mph 25.3 mph N/A   Clear
3:35 PM 80.4 °F 82.1 °F 64.2 °F 58% 30.03 in 10.0 mi SW 13.8 mph 24.2 mph N/A   Scattered Clouds
3:36 PM 80.8 °F 82.4 °F 64.2 °F 57% 30.02 in 10.0 mi SW 16.1 mph 24.2 mph N/A   Scattered Clouds
3:55 PM 81.5 °F 82.9 °F 64.0 °F 55% 30.02 in 10.0 mi WSW 16.1 mph 25.3 mph N/A   Scattered Clouds
4:00 PM 81.0 °F 82.5 °F 64.0 °F 56% 30.02 in 10.0 mi WSW 16.1 mph 25.3 mph N/A   Scattered Clouds
4:17 PM 82.0 °F 83.6 °F 64.2 °F 55% 30.02 in 10.0 mi WSW 15.0 mph 23.0 mph N/A   Scattered Clouds
4:35 PM 82.2 °F 83.8 °F 64.6 °F 55% 30.02 in 10.0 mi North - - N/A   Scattered Clouds
4:36 PM 82.4 °F 84.1 °F 64.6 °F 55% 30.02 in 10.0 mi WSW 16.1 mph 26.5 mph N/A   Scattered Clouds
4:55 PM 81.9 °F 83.2 °F 63.7 °F 54% 30.02 in 10.0 mi WSW 18.4 mph 24.2 mph N/A   Scattered Clouds
4:56 PM 81.7 °F 83.0 °F 63.5 °F 54% 30.02 in 10.0 mi WSW 17.3 mph 24.2 mph N/A   Scattered Clouds
5:19 PM 81.7 °F 83.0 °F 63.7 °F 54% 30.02 in 10.0 mi WSW 13.8 mph 23.0 mph N/A   Scattered Clouds
5:37 PM 81.9 °F 83.4 °F 64.2 °F 55% 30.02 in 10.0 mi WSW 11.5 mph 23.0 mph N/A   Scattered Clouds
5:55 PM 80.8 °F 82.2 °F 63.7 °F 56% 30.02 in 10.0 mi WSW 16.1 mph 23.0 mph N/A   Mostly Cloudy
6:15 PM 81.0 °F 82.3 °F 63.5 °F 55% 30.01 in 10.0 mi WSW 15.0 mph 23.0 mph N/A   Mostly Cloudy
6:16 PM 80.8 °F 82.2 °F 63.5 °F 56% 30.02 in 10.0 mi SW 12.7 mph 23.0 mph N/A   Mostly Cloudy
6:39 PM 80.1 °F 81.7 °F 63.9 °F 58% 30.02 in 10.0 mi WSW 5.8 mph 16.1 mph N/A   Overcast
6:56 PM 80.1 °F 81.7 °F 63.9 °F 58% 30.01 in 10.0 mi WSW 9.2 mph - N/A   Overcast
7:15 PM 80.1 °F 81.6 °F 63.5 °F 57% 30.01 in 10.0 mi SW 9.2 mph 17.3 mph N/A   Overcast
7:16 PM 80.1 °F 81.6 °F 63.7 °F 57% 30.01 in 10.0 mi SW 8.1 mph 17.3 mph N/A   Overcast
7:35 PM 79.9 °F - 64.0 °F 58% 30.01 in 10.0 mi SW 5.8 mph - N/A   Mostly Cloudy
7:36 PM 79.9 °F - 64.0 °F 58% 30.01 in 10.0 mi SW 8.1 mph - N/A   Mostly Cloudy
7:59 PM 79.2 °F - 63.7 °F 59% 30.00 in 10.0 mi SW 11.5 mph - N/A   Scattered Clouds
8:17 PM 79.0 °F - 63.7 °F 59% 30.01 in 10.0 mi WSW 5.8 mph - N/A   Scattered Clouds
8:35 PM 78.4 °F - 63.5 °F 60% 30.01 in 10.0 mi SW 8.1 mph - N/A   Scattered Clouds
8:36 PM 78.4 °F - 63.5 °F 60% 30.00 in 10.0 mi SW 6.9 mph - N/A   Scattered Clouds
8:55 PM 77.7 °F - 63.7 °F 62% 30.00 in 10.0 mi SW 6.9 mph - N/A   Scattered Clouds
8:56 PM 77.7 °F - 63.7 °F 62% 30.00 in 10.0 mi SW 5.8 mph - N/A   Scattered Clouds
9:19 PM 77.0 °F - 63.9 °F 64% 30.01 in 10.0 mi SW 4.6 mph - N/A   Mostly Cloudy
9:37 PM 77.0 °F - 63.7 °F 63% 30.01 in 10.0 mi SW 6.9 mph - N/A   Mostly Cloudy
9:55 PM 75.9 °F - 64.0 °F 67% 30.01 in 10.0 mi SW 8.1 mph - N/A   Scattered Clouds
10:15 PM 75.2 °F - 64.0 °F 68% 30.01 in 10.0 mi SSW 10.4 mph - N/A   Clear
10:16 PM 75.2 °F - 64.0 °F 68% 30.01 in 10.0 mi SW 8.1 mph - N/A   Clear
10:35 PM 74.3 °F - 64.8 °F 72% 30.01 in 10.0 mi SW 5.8 mph - N/A   Clear
10:58 PM 73.6 °F - 65.5 °F 76% 30.01 in 10.0 mi SW 8.1 mph - N/A   Clear
11:16 PM 73.2 °F - 66.2 °F 79% 30.02 in 10.0 mi SW 6.9 mph - N/A   Scattered Clouds